Regional Weather Roundup
Issued by NWS Northern Indiana

Home | Current Version | Previous Version | Graphics & Text | Print | Product List | Glossary On
Versions: 1 2 3 4 5 6 7 8 9 10 11 12 13 14 15 16 17 18 19 20 21 22 23 24 25 26 27 28 29 30 31 32 33 34 35 36 37 38 39 40 41 42 43 44 45 46 47 48 49 50
381
ASUS43 KIWX 300310
RWRIWX

KIWX WEATHER ROUNDUP
NATIONAL WEATHER SERVICE NORTHERN INDIANA
1100 PM EDT SAT APR 29 2017

NOTE: "FAIR" INDICATES FEW OR NO CLOUDS BELOW 12,000 FEET WITH NO
SIGNIFICANT WEATHER AND/OR OBSTRUCTIONS TO VISIBILITY.

* THESE STATIONS ARE NOT UNDER NWS QUALITY CONTROL. THEY ALSO MAY NOT
  REPORT WEATHER SUCH AS PRECIPITATION OR FOG.

INZ001>027-300400-
NORTHERN INDIANA

CITY           SKY/WX    TMP DP  RH WIND       PRES   REMARKS
GARY*          LGT RAIN  46  46 100 NE25G52   29.93F
VALPARAISO     LGT RAIN  49  46  90 E26G38    29.94R FOG
MICHIGAN CITY* LGT SNOW  46  46 100 E10G22    29.94F
LAPORTE*       TSTM      47  45  91 E29G36    29.95F
KNOX*          CLOUDY    46  32  57 E26G33    29.93F
SOUTH BEND     TSTM      47  41  80 E20G30    29.99F
GOSHEN         CLOUDY    48  37  65 E16G29    30.02F
MONTICELLO*    RAIN      50  48  95 E12G18    29.92F
LOGANSPORT*    LGT RAIN  46  46 100 E15G25    29.98R
ROCHESTER*     TSTM      50  46  87 E14G30    30.04R
WARSAW*        CLOUDY    46  36  66 E21G31    29.99F
ANGOLA*        CLOUDY    46  34  61 E20       30.06F
FORT WAYNE     CLOUDY    46  40  79 E28G40    30.02F
HUNTINGTON*    CLOUDY   N/A N/A N/A E16G23    30.00F
PERU/GRISSOM   TSTM      48  48 100 E15       30.01R FOG
MARION*        CLOUDY    46  45  93 E22G33    29.96F FOG

$$
INZ028>050-300400-
CENTRAL INDIANA

CITY           SKY/WX    TMP DP  RH WIND       PRES   REMARKS
LAFAYETTE      LGT RAIN  53  53 100 SE9       29.94R FOG
KOKOMO*        TSTM      48  48 100 E8        30.05R FOG
MUNCIE*        LGT RAIN  51  49  92 E22G30    29.96F FOG
INDIANAPOLIS   TSTM      60  57  89 N14       29.98R FOG

$$
MIZ043>046-050>051-056>058-064>065-071>073-077>080-300400-
SOUTHWEST LOWER MICHIGAN

CITY           SKY/WX    TMP DP  RH WIND       PRES   REMARKS
BATTLE CREEK   LGT RAIN  48  39  71 NE14G29   30.11F
BENTON HARBOR  RAIN      46  42  86 E24G35    29.99F FOG
COLDWATER*     CLOUDY    48  33  54 E23G29    30.07F
HILLSDALE*     CLOUDY    45  32  61 NE15G22   30.09F
HOLLAND        RAIN      44  39  82 E21G29    30.10F
GRAND RAPIDS   LGT RAIN  44  42  93 E18G26    30.19S FOG
KALAMAZOO      CLOUDY    48  40  73 NE10G26   30.07F
STURGIS*       CLOUDY    49  35  58 E20G29    30.05F
THREE RIVERS*  CLOUDY    50  35  57 E21G29    30.06F

$$
OHZ001>008-015>018-024>025-300400-
NORTHWEST OHIO

CITY           SKY/WX    TMP DP  RH WIND       PRES   REMARKS
WAUSEON*       CLOUDY    45  34  65 NE20G25   30.12F
DEFIANCE       CLOUDY    45  36  70 E8        30.11F
FINDLAY        CLOUDY    46  37  71 E20G28    30.09F
TOLEDO EXPRESS CLOUDY    46  36  68 E17       30.13F
TOLEDO METCALF CLOUDY    47  38  71 NE16      30.15F
LIMA           CLOUDY    46  43  89 E21G28    30.06F

$$
AND FOR LAKE MICHIGAN COASTAL AND OPEN LAKE BUOY OBSERVATIONS

STATION/POSITION TEMP    WIND        PRES    VSBY  WAVE
                 AIR SEA DIR/SP/G                  HT/PER
                 (F)     (DEG/KT/KT) (MB)    (MI)  (FT/S)
CALUMET HARBOR    45      10/ 12/ 23 1015.0R
MICHIGAN CITY     47      60/ 30/ 36   N/A
BURNS HARBOR      48      70/ 26/ 34 1013.2F
SOUTH LAKE BUOY   42 41   40/ 17/ 21 1020.5          5/ 7
4 MI NW BRIDGMAN  47 48  100/ 23/ 31 1015.1          6/ 6
MICHIGAN CITY     47 47                N/A           9/ 7

$$
&&




USA.gov is the U.S. government's official web portal to all federal, state and local government web resources and services.